Time,TemperatureF,DewpointF,PressureIn,WindDirection,WindDirectionDegrees,WindSpeedMPH,WindSpeedGustMPH,Humidity,HourlyPrecipIn,Conditions,Clouds,dailyrainin,SoftwareType,DateUTC
2013-03-24 00:03:00,31.0,27.0,-100.00,NE,45,1.0,2.0,85,-99.99,,,-99.99,,2013-03-24 04:03:00,
2013-03-24 00:13:00,31.0,27.0,-100.00,NE,45,2.0,3.0,85,-99.99,,,-99.99,,2013-03-24 04:13:00,
2013-03-24 00:23:00,31.0,27.0,-100.00,NE,40,2.0,4.0,86,-99.99,,,-99.99,,2013-03-24 04:23:00,
2013-03-24 00:33:00,31.0,28.0,-100.00,NE,35,2.0,4.0,86,-99.99,,,-99.99,,2013-03-24 04:33:00,
2013-03-24 00:43:00,31.0,27.0,-100.00,NE,45,1.0,4.0,87,-99.99,,,-99.99,,2013-03-24 04:43:00,
2013-03-24 00:52:00,30.0,27.0,-100.00,ESE,115,1.0,4.0,87,-99.99,,,-99.99,,2013-03-24 04:52:00,
2013-03-24 01:03:00,30.0,28.0,-100.00,SSE,160,1.0,2.0,88,-99.99,,,-99.99,,2013-03-24 05:03:00,
2013-03-24 01:12:00,30.0,27.0,-100.00,East,80,1.0,2.0,88,-99.99,,,-99.99,,2013-03-24 05:12:00,
2013-03-24 01:23:00,30.0,27.0,-100.00,NE,55,2.0,3.0,89,-99.99,,,-99.99,,2013-03-24 05:23:00,
2013-03-24 01:32:00,30.0,28.0,-100.00,NE,35,4.0,6.0,90,-99.99,,,-99.99,,2013-03-24 05:32:00,
2013-03-24 01:42:00,30.0,28.0,-100.00,NE,45,4.0,6.0,91,-99.99,,,-99.99,,2013-03-24 05:42:00,
2013-03-24 01:52:00,30.0,28.0,-100.00,SE,135,1.0,6.0,91,-99.99,,,-99.99,,2013-03-24 05:52:00,
2013-03-24 02:02:00,30.0,28.0,-100.00,East,100,2.0,4.0,92,-99.99,,,-99.99,,2013-03-24 06:02:00,
2013-03-24 02:12:00,30.0,29.0,-100.00,ESE,105,2.0,4.0,92,-99.99,,,-99.99,,2013-03-24 06:12:00,
2013-03-24 02:22:00,31.0,29.0,-100.00,SSE,150,2.0,4.0,92,-99.99,,,-99.99,,2013-03-24 06:22:00,
2013-03-24 02:32:00,30.0,29.0,-100.00,ENE,70,2.0,3.0,92,-99.99,,,-99.99,,2013-03-24 06:32:00,
2013-03-24 02:42:00,30.0,28.0,-100.00,NE,55,2.0,4.0,93,-99.99,,,-99.99,,2013-03-24 06:42:00,
2013-03-24 02:52:00,30.0,28.0,-100.00,ENE,65,3.0,4.0,93,-99.99,,,-99.99,,2013-03-24 06:52:00,
2013-03-24 03:02:00,30.0,28.0,-100.00,ENE,60,1.0,4.0,93,-99.99,,,-99.99,,2013-03-24 07:02:00,
2013-03-24 03:12:00,30.0,29.0,-100.00,ENE,60,4.0,6.0,93,-99.99,,,-99.99,,2013-03-24 07:12:00,
2013-03-24 03:22:00,30.0,29.0,-100.00,East,80,2.0,6.0,93,-99.99,,,-99.99,,2013-03-24 07:22:00,
2013-03-24 03:32:00,30.0,29.0,-100.00,SE,140,1.0,4.0,93,-99.99,,,-99.99,,2013-03-24 07:32:00,
2013-03-24 03:42:00,30.0,29.0,-100.00,East,100,1.0,3.0,93,-99.99,,,-99.99,,2013-03-24 07:42:00,
2013-03-24 03:52:00,29.0,28.0,-100.00,South,185,0.0,2.0,93,-99.99,,,-99.99,,2013-03-24 07:52:00,
2013-03-24 04:03:00,29.0,27.0,-100.00,SSE,165,0.0,0.0,93,-99.99,,,-99.99,,2013-03-24 08:03:00,
2013-03-24 04:12:00,29.0,27.0,-100.00,ENE,75,1.0,1.0,94,-99.99,,,-99.99,,2013-03-24 08:12:00,
2013-03-24 04:22:00,28.0,27.0,-100.00,NNE,25,1.0,2.0,94,-99.99,,,-99.99,,2013-03-24 08:22:00,
2013-03-24 04:32:00,29.0,27.0,-100.00,NNE,25,2.0,3.0,94,-99.99,,,-99.99,,2013-03-24 08:32:00,
2013-03-24 04:42:00,28.0,27.0,-100.00,NE,45,2.0,3.0,94,-99.99,,,-99.99,,2013-03-24 08:42:00,
2013-03-24 04:52:00,29.0,28.0,-100.00,NNE,25,1.0,3.0,95,-99.99,,,-99.99,,2013-03-24 08:52:00,
2013-03-24 05:02:00,29.0,28.0,-100.00,NE,50,5.0,7.0,95,-99.99,,,-99.99,,2013-03-24 09:02:00,
2013-03-24 05:12:00,30.0,29.0,-100.00,ENE,75,4.0,9.0,96,-99.99,,,-99.99,,2013-03-24 09:12:00,
2013-03-24 05:22:00,31.0,30.0,-100.00,East,85,4.0,9.0,96,-99.99,,,-99.99,,2013-03-24 09:22:00,
2013-03-24 05:33:00,31.0,30.0,-100.00,East,80,6.0,10.0,96,-99.99,,,-99.99,,2013-03-24 09:33:00,
2013-03-24 05:42:00,31.0,30.0,-100.00,East,80,6.0,11.0,96,-99.99,,,-99.99,,2013-03-24 09:42:00,
2013-03-24 05:52:00,31.0,30.0,-100.00,ENE,75,5.0,9.0,96,-99.99,,,-99.99,,2013-03-24 09:52:00,
2013-03-24 06:03:00,31.0,30.0,-100.00,ENE,70,6.0,10.0,96,-99.99,,,-99.99,,2013-03-24 10:03:00,
2013-03-24 06:12:00,31.0,30.0,-100.00,East,85,6.0,10.0,96,-99.99,,,-99.99,,2013-03-24 10:12:00,
2013-03-24 06:22:00,31.0,30.0,-100.00,East,80,4.0,8.0,96,-99.99,,,-99.99,,2013-03-24 10:22:00,
2013-03-24 06:33:00,31.0,30.0,-100.00,ENE,65,9.0,12.0,96,-99.99,,,-99.99,,2013-03-24 10:33:00,
2013-03-24 06:42:00,31.0,30.0,-100.00,ENE,75,6.0,14.0,96,-99.99,,,-99.99,,2013-03-24 10:42:00,
2013-03-24 06:52:00,31.0,30.0,-100.00,ENE,75,7.0,11.0,95,-99.99,,,-99.99,,2013-03-24 10:52:00,
2013-03-24 07:03:00,31.0,30.0,-100.00,ENE,75,7.0,11.0,95,-99.99,,,-99.99,,2013-03-24 11:03:00,
2013-03-24 07:12:00,31.0,30.0,-100.00,East,80,6.0,12.0,95,-99.99,,,-99.99,,2013-03-24 11:12:00,
2013-03-24 07:22:00,31.0,30.0,-100.00,East,90,8.0,15.0,95,-99.99,,,-99.99,,2013-03-24 11:22:00,
2013-03-24 07:33:00,31.0,30.0,-100.00,ENE,75,8.0,15.0,95,-99.99,,,-99.99,,2013-03-24 11:33:00,
2013-03-24 07:42:00,31.0,30.0,-100.00,ENE,75,8.0,15.0,95,-99.99,,,-99.99,,2013-03-24 11:42:00,
2013-03-24 07:52:00,31.0,30.0,-100.00,ENE,70,6.0,14.0,94,-99.99,,,-99.99,,2013-03-24 11:52:00,
2013-03-24 08:03:00,31.0,30.0,-100.00,ENE,75,9.0,13.0,94,-99.99,,,-99.99,,2013-03-24 12:03:00,
2013-03-24 08:12:00,31.0,30.0,-100.00,East,90,7.0,15.0,94,-99.99,,,-99.99,,2013-03-24 12:12:00,
2013-03-24 08:23:00,32.0,30.0,-100.00,ENE,70,9.0,15.0,94,-99.99,,,-99.99,,2013-03-24 12:23:00,
2013-03-24 08:32:00,32.0,30.0,-100.00,East,85,8.0,16.0,94,-99.99,,,-99.99,,2013-03-24 12:32:00,
2013-03-24 08:42:00,32.0,30.0,-100.00,East,80,7.0,17.0,94,-99.99,,,-99.99,,2013-03-24 12:42:00,
2013-03-24 08:52:00,32.0,31.0,-100.00,ENE,75,7.0,14.0,94,-99.99,,,-99.99,,2013-03-24 12:52:00,
2013-03-24 09:02:00,32.0,31.0,-100.00,ENE,75,12.0,18.0,94,-99.99,,,-99.99,,2013-03-24 13:02:00,
2013-03-24 09:12:00,32.0,31.0,-100.00,East,85,9.0,17.0,94,-99.99,,,-99.99,,2013-03-24 13:12:00,
2013-03-24 09:22:00,32.0,30.0,-100.00,East,80,7.0,14.0,94,-99.99,,,-99.99,,2013-03-24 13:22:00,
2013-03-24 09:32:00,32.0,30.0,-100.00,East,80,11.0,15.0,94,-99.99,,,-99.99,,2013-03-24 13:32:00,
2013-03-24 09:42:00,32.0,30.0,-100.00,ENE,75,11.0,18.0,93,-99.99,,,-99.99,,2013-03-24 13:42:00,
2013-03-24 09:52:00,32.0,30.0,-100.00,ENE,75,14.0,21.0,93,-99.99,,,-99.99,,2013-03-24 13:52:00,
2013-03-24 10:02:00,32.0,30.0,-100.00,ENE,70,14.0,20.0,93,-99.99,,,-99.99,,2013-03-24 14:02:00,
2013-03-24 10:12:00,32.0,30.0,-100.00,East,80,12.0,20.0,93,-99.99,,,-99.99,,2013-03-24 14:12:00,
2013-03-24 10:22:00,32.0,31.0,-100.00,East,95,11.0,21.0,93,-99.99,,,-99.99,,2013-03-24 14:22:00,
2013-03-24 10:32:00,32.0,31.0,-100.00,East,80,13.0,21.0,93,-99.99,,,-99.99,,2013-03-24 14:32:00,
2013-03-24 10:42:00,32.0,31.0,-100.00,ENE,60,13.0,22.0,93,-99.99,,,-99.99,,2013-03-24 14:42:00,
2013-03-24 10:52:00,32.0,31.0,-100.00,ENE,65,14.0,24.0,92,-99.99,,,-99.99,,2013-03-24 14:52:00,
2013-03-24 11:02:00,33.0,31.0,-100.00,ENE,65,12.0,22.0,92,-99.99,,,-99.99,,2013-03-24 15:02:00,
2013-03-24 11:12:00,33.0,31.0,-100.00,East,80,10.0,18.0,93,-99.99,,,-99.99,,2013-03-24 15:12:00,
2013-03-24 11:22:00,33.0,31.0,-100.00,ENE,65,13.0,19.0,93,-99.99,,,-99.99,,2013-03-24 15:22:00,
2013-03-24 11:33:00,33.0,31.0,-100.00,ENE,75,11.0,17.0,94,-99.99,,,-99.99,,2013-03-24 15:33:00,
2013-03-24 11:43:00,33.0,31.0,-100.00,NE,55,13.0,22.0,94,-99.99,,,-99.99,,2013-03-24 15:43:00,
2013-03-24 11:53:00,33.0,32.0,-100.00,ENE,75,15.0,21.0,94,-99.99,,,-99.99,,2013-03-24 15:53:00,
2013-03-24 12:03:00,33.0,31.0,-100.00,NE,55,14.0,22.0,94,-99.99,,,-99.99,,2013-03-24 16:03:00,
2013-03-24 12:13:00,33.0,31.0,-100.00,ENE,60,14.0,23.0,93,-99.99,,,-99.99,,2013-03-24 16:13:00,
2013-03-24 12:23:00,33.0,31.0,-100.00,ENE,70,12.0,20.0,93,-99.99,,,-99.99,,2013-03-24 16:23:00,
2013-03-24 12:33:00,33.0,31.0,-100.00,ENE,65,12.0,19.0,93,-99.99,,,-99.99,,2013-03-24 16:33:00,
2013-03-24 12:42:00,33.0,31.0,-100.00,East,85,11.0,22.0,92,-99.99,,,-99.99,,2013-03-24 16:42:00,
2013-03-24 12:52:00,33.0,31.0,-100.00,ENE,75,13.0,21.0,91,-99.99,,,-99.99,,2013-03-24 16:52:00,
2013-03-24 13:02:00,34.0,31.0,-100.00,ENE,60,17.0,24.0,89,-99.99,,,-99.99,,2013-03-24 17:02:00,
2013-03-24 13:12:00,34.0,31.0,-100.00,ENE,60,11.0,23.0,89,-99.99,,,-99.99,,2013-03-24 17:12:00,
2013-03-24 13:23:00,34.0,31.0,-100.00,ENE,70,14.0,24.0,88,-99.99,,,-99.99,,2013-03-24 17:23:00,
2013-03-24 13:33:00,34.0,31.0,-100.00,East,90,9.0,18.0,87,-99.99,,,-99.99,,2013-03-24 17:33:00,
2013-03-24 13:42:00,34.0,30.0,-100.00,ENE,60,14.0,22.0,85,-99.99,,,-99.99,,2013-03-24 17:42:00,
2013-03-24 13:52:00,34.0,30.0,-100.00,ENE,65,17.0,23.0,84,-99.99,,,-99.99,,2013-03-24 17:52:00,
2013-03-24 14:03:00,34.0,30.0,-100.00,ENE,65,17.0,23.0,84,-99.99,,,-99.99,,2013-03-24 18:03:00,
2013-03-24 14:12:00,34.0,30.0,-100.00,ENE,65,17.0,23.0,84,-99.99,,,-99.99,,2013-03-24 18:12:00,
2013-03-24 14:22:00,34.0,31.0,-100.00,ENE,70,15.0,26.0,86,-99.99,,,-99.99,,2013-03-24 18:22:00,
2013-03-24 14:33:00,35.0,31.0,-100.00,ENE,70,10.0,24.0,86,-99.99,,,-99.99,,2013-03-24 18:33:00,
2013-03-24 14:43:00,35.0,31.0,-100.00,ENE,65,14.0,20.0,85,-99.99,,,-99.99,,2013-03-24 18:43:00,
2013-03-24 14:52:00,35.0,31.0,-100.00,ENE,65,14.0,24.0,85,-99.99,,,-99.99,,2013-03-24 18:52:00,
2013-03-24 15:03:00,35.0,31.0,-100.00,East,80,17.0,27.0,84,-99.99,,,-99.99,,2013-03-24 19:03:00,
2013-03-24 15:12:00,35.0,29.0,-100.00,ENE,70,18.0,29.0,80,-99.99,,,-99.99,,2013-03-24 19:12:00,
2013-03-24 15:22:00,36.0,29.0,-100.00,ENE,70,9.0,24.0,77,-99.99,,,-99.99,,2013-03-24 19:22:00,
2013-03-24 15:32:00,35.0,28.0,-100.00,ENE,70,12.0,26.0,75,-99.99,,,-99.99,,2013-03-24 19:32:00,
2013-03-24 15:42:00,35.0,26.0,-100.00,ENE,70,17.0,28.0,69,-99.99,,,-99.99,,2013-03-24 19:42:00,
2013-03-24 15:52:00,35.0,26.0,-100.00,ENE,70,17.0,28.0,69,-99.99,,,-99.99,,2013-03-24 19:52:00,
2013-03-24 16:03:00,35.0,25.0,-100.00,East,80,14.0,22.0,67,-99.99,,,-99.99,,2013-03-24 20:03:00,
2013-03-24 16:12:00,35.0,26.0,-100.00,East,90,12.0,26.0,68,-99.99,,,-99.99,,2013-03-24 20:12:00,
2013-03-24 16:22:00,35.0,26.0,-100.00,East,95,13.0,21.0,69,-99.99,,,-99.99,,2013-03-24 20:22:00,
2013-03-24 16:32:00,35.0,26.0,-100.00,ENE,75,17.0,26.0,69,-99.99,,,-99.99,,2013-03-24 20:32:00,
2013-03-24 16:42:00,35.0,26.0,-100.00,East,80,17.0,23.0,69,-99.99,,,-99.99,,2013-03-24 20:42:00,
2013-03-24 16:52:00,35.0,25.0,-100.00,East,100,10.0,27.0,68,-99.99,,,-99.99,,2013-03-24 20:52:00,
2013-03-24 17:02:00,35.0,26.0,-100.00,East,85,14.0,24.0,69,-99.99,,,-99.99,,2013-03-24 21:02:00,
2013-03-24 17:12:00,34.0,25.0,-100.00,East,90,12.0,23.0,69,-99.99,,,-99.99,,2013-03-24 21:12:00,
2013-03-24 17:22:00,34.0,25.0,-100.00,ENE,65,14.0,26.0,69,-99.99,,,-99.99,,2013-03-24 21:22:00,
2013-03-24 17:33:00,34.0,25.0,-100.00,East,85,19.0,26.0,69,-99.99,,,-99.99,,2013-03-24 21:33:00,
2013-03-24 17:43:00,35.0,26.0,-100.00,ESE,105,14.0,24.0,71,-99.99,,,-99.99,,2013-03-24 21:43:00,
2013-03-24 17:52:00,35.0,27.0,-100.00,ENE,75,12.0,19.0,72,-99.99,,,-99.99,,2013-03-24 21:52:00,
2013-03-24 18:03:00,35.0,27.0,-100.00,ENE,75,13.0,23.0,73,-99.99,,,-99.99,,2013-03-24 22:03:00,
2013-03-24 18:13:00,35.0,28.0,-100.00,East,90,14.0,24.0,74,-99.99,,,-99.99,,2013-03-24 22:13:00,
2013-03-24 18:23:00,35.0,28.0,-100.00,ENE,75,11.0,29.0,74,-99.99,,,-99.99,,2013-03-24 22:23:00,
2013-03-24 18:33:00,34.0,27.0,-100.00,ENE,75,15.0,24.0,75,-99.99,,,-99.99,,2013-03-24 22:33:00,
2013-03-24 18:43:00,34.0,27.0,-100.00,East,85,10.0,25.0,75,-99.99,,,-99.99,,2013-03-24 22:43:00,
2013-03-24 18:52:00,34.0,28.0,-100.00,East,80,14.0,25.0,77,-99.99,,,-99.99,,2013-03-24 22:52:00,
2013-03-24 19:03:00,34.0,28.0,-100.00,ENE,65,14.0,23.0,79,-99.99,,,-99.99,,2013-03-24 23:03:00,
2013-03-24 19:12:00,34.0,28.0,-100.00,ENE,75,9.0,22.0,79,-99.99,,,-99.99,,2013-03-24 23:12:00,
2013-03-24 19:22:00,34.0,28.0,-100.00,ENE,70,10.0,22.0,80,-99.99,,,-99.99,,2013-03-24 23:22:00,
2013-03-24 19:32:00,34.0,29.0,-100.00,ENE,70,12.0,25.0,81,-99.99,,,-99.99,,2013-03-24 23:32:00,
2013-03-24 19:42:00,34.0,29.0,-100.00,ENE,65,11.0,18.0,82,-99.99,,,-99.99,,2013-03-24 23:42:00,
2013-03-24 19:52:00,34.0,29.0,-100.00,East,80,12.0,24.0,82,-99.99,,,-99.99,,2013-03-24 23:52:00,
2013-03-24 20:02:00,34.0,29.0,-100.00,ENE,75,11.0,24.0,83,-99.99,,,-99.99,,2013-03-25 00:02:00,
2013-03-24 20:12:00,34.0,29.0,-100.00,East,95,15.0,24.0,83,-99.99,,,-99.99,,2013-03-25 00:12:00,
2013-03-24 20:22:00,34.0,29.0,-100.00,ENE,65,14.0,24.0,83,-99.99,,,-99.99,,2013-03-25 00:22:00,
2013-03-24 20:32:00,33.0,29.0,-100.00,East,80,14.0,21.0,83,-99.99,,,-99.99,,2013-03-25 00:32:00,
2013-03-24 20:42:00,34.0,29.0,-100.00,ENE,70,10.0,23.0,83,-99.99,,,-99.99,,2013-03-25 00:42:00,
2013-03-24 20:52:00,34.0,29.0,-100.00,East,80,12.0,19.0,83,-99.99,,,-99.99,,2013-03-25 00:52:00,
2013-03-24 21:02:00,34.0,29.0,-100.00,East,80,11.0,21.0,83,-99.99,,,-99.99,,2013-03-25 01:02:00,
2013-03-24 21:12:00,34.0,29.0,-100.00,ENE,60,6.0,21.0,83,-99.99,,,-99.99,,2013-03-25 01:12:00,
2013-03-24 21:22:00,34.0,29.0,-100.00,ENE,65,11.0,21.0,83,-99.99,,,-99.99,,2013-03-25 01:22:00,
2013-03-24 21:32:00,34.0,30.0,-100.00,ENE,60,11.0,17.0,84,-99.99,,,-99.99,,2013-03-25 01:32:00,
2013-03-24 21:42:00,34.0,30.0,-100.00,NE,50,11.0,16.0,84,-99.99,,,-99.99,,2013-03-25 01:42:00,
2013-03-24 21:52:00,34.0,30.0,-100.00,NE,55,9.0,19.0,84,-99.99,,,-99.99,,2013-03-25 01:52:00,
2013-03-24 22:02:00,34.0,29.0,-100.00,ENE,60,13.0,20.0,83,-99.99,,,-99.99,,2013-03-25 02:02:00,
2013-03-24 22:12:00,34.0,29.0,-100.00,ENE,65,14.0,22.0,83,-99.99,,,-99.99,,2013-03-25 02:12:00,
2013-03-24 22:22:00,34.0,29.0,-100.00,NE,50,13.0,21.0,83,-99.99,,,-99.99,,2013-03-25 02:22:00,
2013-03-24 22:33:00,34.0,29.0,-100.00,ENE,60,18.0,24.0,83,-99.99,,,-99.99,,2013-03-25 02:33:00,
2013-03-24 22:42:00,34.0,29.0,-100.00,NE,55,12.0,21.0,83,-99.99,,,-99.99,,2013-03-25 02:42:00,
2013-03-24 22:52:00,33.0,29.0,-100.00,NE,55,12.0,21.0,83,-99.99,,,-99.99,,2013-03-25 02:52:00,
2013-03-24 23:03:00,34.0,29.0,-100.00,ENE,65,11.0,21.0,83,-99.99,,,-99.99,,2013-03-25 03:03:00,
2013-03-24 23:13:00,34.0,29.0,-100.00,NE,50,14.0,21.0,83,-99.99,,,-99.99,,2013-03-25 03:13:00,
2013-03-24 23:23:00,33.0,29.0,-100.00,NE,45,12.0,24.0,83,-99.99,,,-99.99,,2013-03-25 03:23:00,
2013-03-24 23:33:00,33.0,29.0,-100.00,NE,55,16.0,25.0,83,-99.99,,,-99.99,,2013-03-25 03:33:00,
2013-03-24 23:43:00,34.0,29.0,-100.00,ENE,60,12.0,25.0,82,-99.99,,,-99.99,,2013-03-25 03:43:00,
2013-03-24 23:53:00,34.0,29.0,-100.00,NE,50,14.0,22.0,81,-99.99,,,-99.99,,2013-03-25 03:53:00,